Location: Burjasot
(39.5167°N, 0.4167°W)
Time: 09:12:03
(UTC+02:00)

ISS - Visible Passes

Search period start: 28 June 2017 00:00
Search period end: 08 July 2017 00:00
Orbit: 401 x 408 km, 51.6° (Epoch: 28 June)

Date Brightness Start Highest point End Pass type
(mag) Time Alt. Az. Time Alt. Az. Time Alt. Az.
04 Jul -1.3 05:31:37 10° SSE 05:33:32 15° SE 05:35:27 10° E visible
06 Jul -2.8 05:23:17 19° SSW 05:25:09 36° SE 05:28:12 10° ENE visible
07 Jul -1.8 04:33:02 18° SE 04:33:02 18° SE 04:35:22 10° E visible
07 Jul -3.0 06:06:06 10° WSW 06:09:15 44° NNW 06:12:24 10° NE visible
